Regional Weather Roundup
Issued by NWS San Angelo, TX

Home | Current Version | Previous Version | Text Only | Print | Product List | Glossary On
Versions: 1 2 3 4 5 6 7 8 9 10 11 12 13 14 15 16 17 18 19 20 21 22 23 24 25 26 27 28 29 30 31 32 33 34 35 36 37 38 39 40 41 42 43 44 45 46 47 48 49 50
000
ASUS44 KSJT 171410
RWRSJT
WEST CENTRAL TEXAS REGIONAL WEATHER ROUNDUP
NATIONAL WEATHER SERVICE SAN ANGELO TX
900 AM CDT THU APR 17 2014

NOTE: "FAIR" INDICATES FEW OR NO CLOUDS BELOW 12,000 FEET WITH NO
SIGNIFICANT WEATHER AND/OR OBSTRUCTIONS TO VISIBILITY.

TXZ049-054-064>066-071>073-076>078-098-099-113-114-127-128-139-140-
154-155-168>170-171500
...LOCATIONS ACROSS WEST CENTRAL TEXAS...

CITY           SKY/WX    TMP DP  RH WIND       PRES   REMARKS
SAN ANGELO     CLOUDY    60  50  69 NE9       30.01R
ABILENE        CLOUDY    53  50  89 E16       30.05F
DYESS AFB      CLOUDY    54  50  87 E16       30.04F
JUNCTION       CLOUDY    60  53  77 SE8       29.99R
SWEETWATER     CLOUDY    54  47  76 E10       30.07R
BROWNWOOD      CLOUDY    54  54 100 E10       30.09R FOG
COLEMAN        DRIZZLE   55  53  92 E7        30.08R
SONORA         CLOUDY    59  54  82 S13G21    29.98R
OZONA          FAIR      55  50  82 S16G24    30.01R
BRADY          CLOUDY    57  52  82 E6        30.02R
$$

TEXAS PANHANDLE/OKLAHOMA PANHANDLE

CITY           SKY/WX    TMP DP  RH WIND       PRES   REMARKS
AMARILLO       CLOUDY    44  33  65 NE20      30.15R WCI  36
BORGER         CLOUDY    44  31  60 NE14      30.18R WCI  37
CANADIAN       CLOUDY    46  34  63 NE14G20   30.19R WCI  39
DALHART        MOSUNNY   43  34  70 NE21G30   30.20R WCI  34
DUMAS          CLOUDY    41  32  69 NE20G25   30.18R WCI  32
GUYMON         NOT AVBL
HEREFORD       SUNNY     46  33  60 NE18G25   30.13R WCI  38
PAMPA          CLOUDY    41  32  69 NE17      30.18R WCI  33
PERRYTON       CLOUDY    42  32  67 NE18G24   30.21R WCI  34
$$

SOUTHERN PANHANDLE/SOUTH PLAINS/ROLLING PLAINS

CITY           SKY/WX    TMP DP  RH WIND       PRES   REMARKS
LUBBOCK        CLOUDY    49  41  74 E15       30.05R
SNYDER         CLOUDY    55  46  74 E18       30.01R
CHILDRESS      CLOUDY    51  43  74 N10       30.10R
SEMINOLE       PTSUNNY   52  37  57 E5        30.01R
$$

PERMIAN BASIN

CITY           SKY/WX    TMP DP  RH WIND       PRES   REMARKS
MIDLAND        PTSUNNY   56  42  59 E9        29.98R
ODESSA         PTSUNNY   56  42  59 E10       29.98R
WINK           SUNNY     56  33  42 N17       29.99R
$$

FAR WEST/SOUTHWEST MOUNTAINS/TRANS PECOS

CITY           SKY/WX    TMP DP  RH WIND       PRES   REMARKS
ALPINE         SUNNY     56  24  28 E3        30.10R
DRYDEN           N/A     57  51  80 E7        29.97R
EL PASO        SUNNY     59  16  18 NE7       30.01R
FORT STOCKTON  MOSUNNY   57  30  35 W20G26    29.98R
GUADALUPE PASS SUNNY     53  23  31 E8        30.07R
MARFA          SUNNY     57  18  21 N6        30.05R
PECOS          SUNNY     58  29  34 NW22      30.00R
$$

DALLAS/FORT WORTH METROPLEX

CITY           SKY/WX    TMP DP  RH WIND       PRES   REMARKS
DFW AIRPORT    MOSUNNY   56  48  74 SE9       30.12R
FTW MEACHAM    CLOUDY    56  50  80 SE8       30.12R
DAL-EXECUTIVE  MOSUNNY   53  48  83 SE5       30.12R
GRAND PRAIRIE  PTSUNNY   55  48  76 SE3       30.15R
ADDISON        NOT AVBL
MESQUITE       NOT AVBL
LANCASTER      PTSUNNY   52  47  81 E5        30.14R
$$

NORTH CENTRAL TEXAS

CITY           SKY/WX    TMP DP  RH WIND       PRES   REMARKS
SHRMAN/DENISON CLOUDY    52  45  77 SE8       30.17R
GAINESVILLE    PTSUNNY   52  46  80 E8        30.17R
BRIDGEPORT     CLOUDY    55  48  79 SE8       30.14R
DENTON         CLOUDY    55  49  80 SE9       30.13R
WAXAHACHIE     CLOUDY    52  48  88 E5        30.14R
GRANBURY       CLOUDY    56  51  81 SE7       30.12R
$$

WESTERN NORTH TEXAS

CITY           SKY/WX    TMP DP  RH WIND       PRES   REMARKS
WICHITA FALLS  MOSUNNY   56  48  74 S13       30.09R
VERNON         PTSUNNY   52  44  73 SE6       30.09R
BRECKENRIDGE   CLOUDY    58  50  74 SE10      30.09R
COMANCHE       DRIZZLE   53  52  99 E5        30.08R
$$

CENTRAL AND SOUTH CENTRAL TEXAS

CITY           SKY/WX    TMP DP  RH WIND       PRES   REMARKS
AUSTIN/BERGSTM CLOUDY    58  54  86 E7        30.04R
WACO           CLOUDY    56  51  84 SE12      30.10R
HILLSBORO      CLOUDY    52  49  89 E10       30.11R FOG
TEMPLE         CLOUDY    55  48  76 E9        30.10S
KILLEEN-GRAY   CLOUDY    55  54  94 E8        30.07R
FORT HOOD      NOT AVBL
GEORGETOWN     CLOUDY    57  54  88 SE7       30.06R
LAGO VISTA     CLOUDY    58  54  87 E7        30.05R
SAN MARCOS     CLOUDY    57  52  82 E8        30.05R FOG
NEW BRAUNFELS  CLOUDY    59  55  87 E7        30.03R
RANDOLPH AFB   PTSUNNY   59  53  82 E7        30.03R
SAN ANTONIO    CLOUDY    61  55  81 E6        30.02R
STINSON        CLOUDY    62  56  80 E6        30.00R
PLEASANTON     NOT AVBL
LA GRANGE      CLOUDY    63  58  86 SE8       30.03R
GIDDINGS       CLOUDY    59  56  87 CALM      30.08R
$$

EAST TEXAS

CITY           SKY/WX    TMP DP  RH WIND       PRES   REMARKS
PARIS          SUNNY     52  43  71 E9        30.19R
CLARKSVILLE    SUNNY     53  44  70 E5        30.20R
TYLER          CLOUDY    57  48  72 SE12      30.14S
LONGVIEW       CLOUDY    51  46  83 E6        30.16S
PALESTINE      CLOUDY    56  48  75 E8        30.15R
NACOGDOCHES    CLOUDY    55  46  71 E8        30.14S
$$

TEXAS HILL COUNTRY AND EDWARDS PLATEAU

CITY           SKY/WX    TMP DP  RH WIND       PRES   REMARKS
LLANO            N/A     57  54  88 E7        30.07R
HORSESHOE BAY  CLOUDY    57  52  82 E3        30.03R
KERRVILLE      CLOUDY    59  56  89 SE13G20   30.01R
FREDERICKSBRG  CLOUDY    58  54  86 S7        30.02R
ROCKSPRINGS    CLOUDY    57  54  88 SE16      30.00R
HONDO          CLOUDY    63  56  78 SE9       30.03R
UVALDE         PTSUNNY   60  57  89 E13       30.00R
DEL RIO        CLOUDY    61  54  77 E16       29.97R
$$

SOUTHEAST TEXAS

CITY           SKY/WX    TMP DP  RH WIND       PRES   REMARKS
COLLEGE STN    CLOUDY    57  53  86 E7        30.07S
CALDWELL       CLOUDY    55  55 100 E5        30.09F
CROCKETT       CLOUDY    57  54  88 E6        30.15R
BRENHAM        CLOUDY    59  55  87 E6        30.07R
HUNTSVILLE     CLOUDY    56  51  84 E3        30.10R
CONROE         CLOUDY    56  52  86 VRB5      30.11R
HOUSTON BUSH   CLOUDY    58  54  86 E13       30.07S THUNDER
HOUSTON HOBBY  TSTM      60  56  86 E12       30.05S
PERLAND        CLOUDY    62  57  83 E13       30.08S THUNDER
WHARTON        CLOUDY    65  60  82 E13       30.03S
$$

THE UPPER TEXAS COAST

CITY           SKY/WX    TMP DP  RH WIND       PRES   REMARKS
ORANGE         CLOUDY    58  50  75 NE10      30.14S
PORT ARTHUR    CLOUDY    59  51  75 E10       30.12R
GALVESTON      CLOUDY    66  58  75 E15G24    30.08R
ANGLETON       CLOUDY    65  59  81 E12       30.04S
BAY CITY       CLOUDY    66  61  83 SE10      30.03R
$$

TEXAS COASTAL BEND, RIO GRANDE PLAINS DEEP SOUTH TEXAS

CITY           SKY/WX    TMP DP  RH WIND       PRES   REMARKS
VICTORIA       CLOUDY    65  60  84 SE10      29.99F
BEEVILLE       CLOUDY    66  62  85 E8        30.00R
ROCKPORT       PTSUNNY   68  61  78 SE16      29.99S
PORT ARANSAS   CLOUDY    66  62  87 SE8       29.99R
PORT LAVACA    CLOUDY    68  62  80 E18       29.99F
CORPUS CHRISTI LGT RAIN  68  62  81 SE10      29.99R
KINGSVILLE NAS CLOUDY    68  64  87 E13       29.99R
COTULLA        CLOUDY    64  57  78 SE14      29.98R
LAREDO         CLOUDY    65  56  72 SE14      29.99R
BROWNSVILLE    TSTM      67  65  93 SE7       29.94R
PORT ISABEL    CLOUDY    68  65  90 E6        29.96R
HEBBRONVILLE   CLOUDY    63  59  86 E9        30.00R
MCALLEN        CLOUDY    67  61  81 E9        29.96R
WESLACO        CLOUDY    67  61  81 E5        29.96R
FALFURRIAS     PTSUNNY   68  64  86 E5        29.98R
EDINBURG       CLOUDY    67  62  81 E7        29.97S
$$



USA.gov is the U.S. government's official web portal to all federal, state and local government web resources and services.